カタログに戻る

THOR ABLESTAR DEB

運用中LEO
NORAD 254·DEBRIS·🇺🇸 United States

打ち上げ Jun 29, 1961 から Cape Canaveral Space Force Station

Loading…

次のパス (今後24時間)

TLE

最新Source: Space-Track

元期: Sep 9, 2026, 19:31 UTC

1 00254U 61015CF  26252.81368950  .00000947  00000-0  24708-3 0  9995
2 00254  66.7717  49.8682 0057748   5.9074 354.2704 14.53048948385973

AllMySatでTHOR ABLESTAR DEBをリアルタイム追跡

Download on the App Store